Regional Weather Roundup
Issued by NWS Little Rock, AR

Home | Current Version | Previous Version | Text Only | Print | Product List | Glossary Off
Versions: 1 2 3 4 5 6 7 8 9 10 11 12 13 14 15 16 17 18 19 20 21 22 23 24 25 26 27 28 29 30 31 32

000
ASUS44 KLZK 300005
RWRLZK

WEATHER ROUNDUP FOR ARKANSAS
NATIONAL WEATHER SERVICE LITTLE ROCK AR
700 PM CDT THU SEP 29 2016

NOTE: "FAIR" INDICATES FEW OR NO CLOUDS BELOW 12,000 FEET WITH NO
SIGNIFICANT WEATHER AND/OR OBSTRUCTIONS TO VISIBILITY.

ARZ001-003-010-029-300100-
NORTHWEST ARKANSAS

CITY           SKY/WX    TMP DP  RH WIND       PRES   REMARKS
FAYETTEVILLE   CLEAR     63  48  58 NW8       30.24R
6HR MIN TEMP:  63; 6HR MAX TEMP:  71;

FORT SMITH     CLEAR     72  46  39 N9        30.20R
6HR MIN TEMP:  72; 6HR MAX TEMP:  79;

HARRISON       CLEAR     64  47  53 N5        30.22R
6HR MIN TEMP:  64; 6HR MAX TEMP:  74;

BENTONVILLE    CLEAR     64  45  48 N5        30.26R
6HR MIN TEMP:  64; 6HR MAX TEMP:  72;

ROGERS         CLEAR     64  49  57 NW6       30.26R
6HR MIN TEMP:  64; 6HR MAX TEMP:  70;

SILOAM SPGS    CLEAR     64  43  45 N5        30.26R
6HR MIN TEMP:  64; 6HR MAX TEMP:  72;

HIGHFILL       CLEAR     63  50  62 NW7       30.25R
6HR MIN TEMP:  63; 6HR MAX TEMP:  73;

SPRINGDALE     CLEAR     66  46  48 NW12      30.26R
$$

ARZ004-005-016-300100-
NORTH CENTRAL ARKANSAS

CITY           SKY/WX    TMP DP  RH WIND       PRES   REMARKS
BATESVILLE     CLEAR     70  48  46 NW3       30.16R
6HR MIN TEMP:  70; 6HR MAX TEMP:  77;

FLIPPIN        CLEAR     70  45  40 N6        30.17S
6HR MIN TEMP:  70; 6HR MAX TEMP:  75;

MTN HOME       CLEAR     65  50  58 CALM      30.19R
6HR MIN TEMP:  65; 6HR MAX TEMP:  75;

$$

ARZ040-041-300100-
WEST CENTRAL ARKANSAS

CITY           SKY/WX    TMP DP  RH WIND       PRES   REMARKS
MENA           CLEAR     70  54  56 CALM      30.21R
MOUNT IDA      CLEAR     67  51  56 CALM      30.17S
6HR MIN TEMP:  67; 6HR MAX TEMP:  77;

$$

ARZ009-017-025-026-028-300100-
NORTHEAST ARKANSAS

CITY           SKY/WX    TMP DP  RH WIND       PRES   REMARKS
CORNING          N/A     68  55  64 NE10      30.16S
JONESBORO      PTCLDY    69  54  58 NE7       30.15R
6HR MIN TEMP:  69; 6HR MAX TEMP:  79;

NEWPORT        LGT RAIN  67  53  61 N8        30.15R
6HR MIN TEMP:  67; 6HR MAX TEMP:  78;

WALNUT RIDGE   PTCLDY    68  52  56 N7        30.15R
6HR MIN TEMP:  68; 6HR MAX TEMP:  79;

BLYTHEVILLE    CLOUDY    66  53  63 N8        30.15R
6HR MIN TEMP:  66; 6HR MAX TEMP:  77;

$$

ARZ022-023-033-042-044-300100-
CENTRAL ARKANSAS

CITY           SKY/WX    TMP DP  RH WIND       PRES   REMARKS
LITTLE ROCK    PTCLDY    72  49  44 N7        30.16R
6HR MIN TEMP:  72; 6HR MAX TEMP:  80;

N LITTLE ROCK    N/A     69  52  54 N3        30.15R
6HR MIN TEMP:  69; 6HR MAX TEMP:  75;

JACKSONVILLE   CLEAR     73  51  46 N2        30.15R
6HR MIN TEMP:  73; 6HR MAX TEMP:  78;

SEARCY         CLEAR     69  52  54 NW5       30.16R
6HR MIN TEMP:  69; 6HR MAX TEMP:  78;

HOT SPRINGS    CLEAR     72  48  42 N5        30.18R
6HR MIN TEMP:  72; 6HR MAX TEMP:  76;

RUSSELLVILLE   CLEAR     72  49  44 N5        30.17S
6HR MIN TEMP:  72; 6HR MAX TEMP:  77;

$$

ARZ036-300100-
EAST ARKANSAS

CITY           SKY/WX    TMP DP  RH WIND       PRES   REMARKS
WEST MEMPHIS   MOCLDY    69  53  56 NE13      30.12R
6HR MIN TEMP:  69; 6HR MAX TEMP:  78;

$$

ARZ050-053-066-070-073-300100-
SOUTHWEST ARKANSAS

CITY           SKY/WX    TMP DP  RH WIND       PRES   REMARKS
ARKADELPHIA    FAIR      66  60  81 CALM      30.17S
6HR MIN TEMP:  66; 6HR MAX TEMP:  76;

TEXARKANA      CLEAR     72  48  42 N3        30.18S
6HR MIN TEMP:  72; 6HR MAX TEMP:  77;

EL DORADO      CLEAR     66  55  67 NW3       30.17R
6HR MIN TEMP:  66; 6HR MAX TEMP:  77;

DE QUEEN       CLEAR     71  51  49 N3        30.17S
6HR MIN TEMP:  71; 6HR MAX TEMP:  77;

$$

ARZ056-057-069-300100-
SOUTHEAST ARKANSAS

CITY           SKY/WX    TMP DP  RH WIND       PRES   REMARKS
PINE BLUFF     CLEAR     71  52  50 W5        30.15R
6HR MIN TEMP:  71; 6HR MAX TEMP:  76;

STUTTGART      CLEAR     70  48  46 NW7       30.15S
6HR MIN TEMP:  70; 6HR MAX TEMP:  79;

MONTICELLO     CLEAR     67  53  61 CALM      30.15R
6HR MIN TEMP:  67; 6HR MAX TEMP:  78;


$$






USA.gov is the U.S. government's official web portal to all federal, state and local government web resources and services.